{"data":{"norad_id":48460,"epoch":"2026-08-12T22:58:52.193856Z","epoch_age_seconds":3367252,"freshness":"OLD","line1":"1 48460U 21040AJ  26224.95754854  .07484398  12382-4  56707-3 0  9993","line2":"2 48460  53.0242  69.4106 0011883 282.3132  77.6584 16.39397636292539","mean_motion":16.39397636,"eccentricity":0.0011883,"inclination_deg":53.0242,"raan_deg":69.4106,"arg_perigee_deg":282.3132,"mean_anomaly_deg":77.6584,"bstar":0.00056707,"rev_number":29253,"period_min":87.837140201903,"perigee_km":159.62730021781,"apogee_km":175.1834362101,"semimajor_km":6545.542368214,"source":"CELESTRAK","updated_at":"2026-08-13T09:01:46.988721Z"}}